User: anonymous   Login
Location: Newark
(44.2003°N, 3.2583°E)
Time: 03:18:11
(UTC+00:00)
Language:

Transit 2A - Orbit

View from above orbital plane
View from above orbital plane
View from above satellite
View from above satellite

Ground track
Ground track

The orbit data is extracted from the following two-line orbital elements,

1    45U 60007A   19292.30577941 -.00000062  00000-0  11212-4 0  9991
2    45  66.6936 299.0014 0250180 133.1001 229.1333 14.33652060 87993
Epoch (UTC): 19 October 2019 07:20:19
Eccentricity: 0.0250180
inclination: 66.6936°
perigee height: 600 km
apogee height: 958 km
right ascension of ascending node: 299.0014°
argument of perigee: 133.1001°
revolutions per day: 14.33652060
mean anomaly at epoch: 229.1333°
orbit number at epoch: 8799

The dashed part of the orbit path shows where the satellite is in the earth's shadow,  

DLR